SCP
6 6 5 5 4 4 4 4 3 2 2 2 2 2 3 3 3 2 2 2 2 2 2 2 2 2 2 2 3 3 3 3 3 2 3 4 3 3 3 3 3 2 2
7 7 7 6 4 4 4 4 3 3 3 3 3 3 3 3 3 3 2 2 2 2 2 2 2 2 2 2 2 2 2 3 3 3 3 4 3 2 3 3 3 2 2
9 10 9 7 5 4 4 4 3 3 4 4 5 5 4 3 3 3 2 2 2 2 2 2 2 2 2 2 2 2 2 2 3 3 3 3 3 2 2 2 3 3 3
12 11 9 7 6 5 4 4 3 4 4 5 5 5 4 3 3 3 2 2 2 2 2 2 2 2 2 2 2 2 2 2 2 2 2 3 2 2 2 2 3 3 3
10 9 8 7 7 6 5 4 4 4 4 5 5 4 3 3 2 2 2 2 2 2 2 3 2 2 2 1 1 2 2 2 2 2 2 2 2 2 2 2 2 3 3
7 7 6 6 6 6 6 5 5 5 5 5 5 4 3 2 2 2 2 2 2 2 2 2 2 2 1 1 1 1 2 2 1 1 1 1 2 2 2 2 2 2 2
6 5 5 4 4 5 6 6 5 6 6 6 5 5 4 2 2 1 1 1 1 2 2 2 1 1 1 1 1 1 1 1 1 1 1 1 1 2 2 2 2 2 1
5 5 4 4 3 4 5 5 6 6 6 6 6 5 4 3 1 1 1 1 1 1 1 1 1 1 1 1 1 1 1 1 1 1 1 1 1 1 2 2 1 1 1
5 4 4 5 5 5 5 6 7 7 6 6 5 4 4 3 1 1 0 1 1 1 1 1 1 1 1 1 1 1 1 1 1 1 1 1 1 1 1 1 1 1 1
5 6 6 7 7 6 6 7 7 6 5 4 3 3 3 3 2 1 1 2 2 2 2 2 1 1 1 1 1 1 1 1 1 1 1 1 1 1 1 1 1 1 1
7 7 7 6 6 6 6 6 6 5 4 3 3 2 2 2 2 1 1 2 3 3 3 3 2 1 0 0 1 1 1 1 1 1 1 1 1 1 1 1 1 1 1
7 7 6 4 4 4 5 5 4 4 3 3 3 3 2 2 2 1 1 1 2 3 3 3 2 1 0 0 0 0 0 0 0 1 1 1 1 1 1 1 1 1 1
5 4 4 4 4 5 5 4 4 3 3 3 3 3 3 3 3 2 1 0 1 1 2 1 1 0 0 0 0 0 0 0 0 0 1 1 1 1 1 1 1 1 1
3 3 3 4 4 5 4 3 3 2 2 3 3 3 3 3 3 3 2 1 0 0 1 0 0 0 0 0 0 0 0 0 0 0 1 1 1 1 1 1 1 1 1
3 3 3 4 4 4 3 2 2 2 2 2 2 2 2 2 3 3 2 1 0 0 0 0 0 0 0 0 0 0 0 0 1 1 1 1 1 1 1 1 1 1 1
3 3 3 3 3 3 2 1 1 1 1 1 1 1 1 1 1 1 1 1 0 0 0 0 0 0 0 1 1 1 1 1 1 1 1 1 1 1 1 1 1 1 0
3 3 3 3 3 2 2 1 1 1 0 0 0 0 0 0 0 0 0 0 0 0 0 0 0 0 0 1 1 1 1 1 1 1 1 1 0 1 1 1 1 1 0
3 3 3 3 3 2 2 1 1 1 1 1 1 0 0 0 0 0 0 0 0 0 0 0 1 0 0 1 1 1 1 1 1 1 1 1 1 1 1 1 1 1 0
3 2 2 2 2 3 2 2 2 2 2 2 2 1 0 0 0 0 0 0 0 0 0 1 1 0 0 1 1 1 1 1 1 1 1 1 1 1 1 1 1 1 1
3 3 2 2 2 3 3 3 3 3 3 3 2 1 1 0 0 0 0 0 0 1 1 1 1 1 1 1 1 1 1 1 1 1 1 1 1 1 1 1 1 1 1
3 3 2 2 3 3 3 4 4 5 4 4 3 2 1 0 1 0 0 0 1 1 1 1 1 1 1 1 1 1 1 1 1 1 1 1 1 1 1 1 1 1 1
3 2 2 2 3 3 3 4 5 6 5 4 3 1 1 1 1 1 1 0 0 1 1 1 1 1 1 1 1 1 0 0 0 0 1 1 1 1 1 1 1 1 1
3 3 3 3 4 4 4 4 5 5 4 3 2 1 1 1 1 1 1 1 1 1 2 1 1 1 1 1 1 1 0 0 0 0 0 0 1 1 1 1 1 1 1
3 3 4 4 5 5 4 4 3 3 2 1 1 2 2 1 1 1 1 1 1 2 3 2 1 1 1 1 1 1 0 0 0 0 0 0 0 0 0 0 1 1 1
4 4 4 5 6 6 4 3 2 1 1 1 1 2 2 1 1 1 1 1 1 2 2 2 1 1 1 1 1 1 0 0 0 0 0 0 0 0 0 0 0 0 1
4 4 5 5 6 6 4 1 1 0 0 1 1 1 1 1 1 1 1 1 1 1 2 2 1 1 1 2 1 1 0 0 0 0 0 0 0 0 0 0 0 0 0
Wind_Speed
3 2 1 1 1 1 1 1 2 2 2 2 2 2 1 1 1 2 2 2 2 2 2 2 3 3 3 3 3 2 2 2 2 2 1 0 0 1 1 1 2 3 4
4 3 2 1 1 1 1 1 1 1 1 1 2 2 2 2 2 2 3 3 3 2 2 3 3 3 3 3 3 3 2 2 1 2 1 1 1 1 2 2 1 2 2
4 3 2 1 1 0 1 1 1 1 1 2 2 2 3 3 3 3 3 3 3 3 2 2 3 3 3 3 3 3 3 3 1 1 2 1 1 0 0 1 1 0 1
3 3 2 1 1 0 1 1 1 1 1 2 2 2 2 2 3 4 3 3 3 3 3 2 2 3 3 3 3 3 3 3 2 1 1 1 1 0 0 1 1 1 1
2 2 2 2 1 0 1 1 1 1 1 1 2 2 3 2 4 4 4 4 3 3 3 3 3 3 4 3 3 3 4 3 2 2 2 1 1 0 1 1 1 1 2
2 2 2 1 1 0 0 0 0 1 1 2 2 2 3 4 6 7 5 4 3 2 3 3 3 2 3 3 4 4 4 3 3 2 2 2 2 1 1 1 1 1 2
2 1 1 1 1 1 1 1 1 1 1 1 2 2 2 3 5 6 7 4 3 2 2 2 3 3 3 3 3 3 3 4 4 3 3 3 2 2 2 2 2 2 2
2 1 1 1 1 1 1 1 0 0 1 1 1 1 1 2 4 5 6 3 3 3 2 2 2 2 3 4 3 3 3 3 3 2 2 3 3 2 1 2 3 2 2
2 1 1 1 1 1 1 1 1 1 1 1 0 0 1 1 2 3 4 3 2 3 2 1 1 1 3 4 3 3 4 4 4 3 3 3 4 4 3 1 1 2 3
1 1 1 1 1 1 1 1 1 1 1 1 1 1 1 0 1 2 3 2 2 3 2 1 2 2 3 4 3 3 4 4 5 4 4 3 4 4 4 3 2 2 2
2 2 1 1 1 1 1 1 1 1 1 1 1 1 0 0 1 1 1 1 2 3 3 2 1 2 3 4 4 3 5 5 5 4 3 3 2 2 2 3 3 3 2
2 1 1 0 2 1 1 1 1 1 2 2 1 1 0 0 1 1 1 2 3 3 3 2 3 4 4 5 4 5 6 5 4 3 3 2 2 2 1 2 2 2 2
1 1 0 0 1 1 1 1 1 1 2 2 1 1 1 0 0 0 1 3 4 2 2 3 4 5 5 3 3 5 4 3 3 3 3 2 2 2 2 1 1 1 1
1 0 1 1 1 1 1 1 1 1 1 2 2 2 1 1 1 1 1 2 2 2 2 3 5 5 4 3 3 2 2 2 3 3 3 3 2 1 1 1 1 0 0
1 2 3 2 2 2 1 1 1 0 0 1 2 2 2 2 2 2 2 2 2 2 4 3 2 2 2 2 2 2 2 2 2 3 3 3 2 1 1 1 1 1 1
2 2 3 2 2 2 2 1 1 2 2 2 2 1 0 0 2 3 3 3 4 4 3 3 3 2 2 2 2 2 2 2 2 2 2 2 3 2 1 1 1 1 1
3 3 3 2 2 2 2 2 2 2 3 3 3 3 3 3 4 4 5 5 4 2 2 3 3 2 2 2 2 2 2 2 2 2 3 3 2 2 2 2 2 1 1
3 3 3 2 2 2 2 3 2 2 2 3 4 6 6 6 6 5 4 4 3 2 2 2 2 2 2 2 2 2 2 2 2 2 3 3 2 2 2 2 2 2 2
3 2 3 3 3 3 3 3 2 2 2 2 1 1 3 4 5 4 2 2 3 3 2 2 2 2 3 2 2 3 3 3 3 2 2 3 2 2 2 2 2 2 2
3 3 3 3 3 3 2 3 3 2 2 2 2 1 1 2 2 1 1 2 2 3 3 2 2 2 2 2 2 3 3 3 3 3 3 2 2 2 2 2 2 2 2
3 3 4 4 3 2 2 2 2 2 2 2 1 1 1 2 1 1 0 1 2 2 2 2 2 2 2 2 2 3 4 3 3 3 3 3 3 3 3 2 3 3 2
3 3 3 3 2 2 2 2 2 2 2 2 2 0 1 2 2 2 1 1 1 1 1 1 2 2 2 3 3 3 3 3 4 4 3 3 3 3 3 3 3 3 2
4 4 3 2 1 1 2 2 2 2 2 2 2 2 1 1 2 2 2 2 2 2 2 1 2 2 2 2 3 3 3 3 4 4 4 3 3 3 3 3 4 4 3
3 3 3 2 1 2 2 2 2 2 2 2 2 1 1 1 2 2 2 2 2 2 2 2 1 2 4 3 2 2 3 3 4 4 5 4 4 3 3 3 4 4 4
2 3 2 2 1 1 1 1 2 2 2 2 2 2 2 2 2 2 2 2 3 3 3 3 2 2 4 4 3 3 3 3 3 4 4 4 4 4 4 4 3 3 4
2 2 2 1 1 1 1 2 2 1 1 2 2 1 2 2 2 2 2 2 3 2 2 2 3 3 3 3 3 3 2 2 3 4 4 4 4 4 4 4 5 4 4
Wind_Direction
131 116 92 101 119 118 64 38 22 11 12 357 342 330 330 336 328 322 317 315 310 324 326 332 322 318 324 315 322 322 322 317 295 296 309 291 215 237 210 220 194 184 178
138 132 130 123 94 55 58 62 48 14 3 4 359 349 342 346 338 323 319 324 313 312 316 322 320 325 328 328 329 320 321 304 275 300 323 304 256 205 201 226 219 192 181
140 136 133 133 125 54 36 36 20 14 16 16 12 360 351 351 342 330 325 316 319 316 314 318 319 330 333 335 327 319 318 318 327 289 291 312 302 269 186 288 307 42 249
126 136 142 146 138 126 66 45 12 21 38 13 3 354 344 348 343 337 328 313 320 327 334 337 338 340 339 325 319 325 321 321 312 296 279 285 276 285 119 293 311 298 279
102 106 111 122 146 140 92 64 28 15 3 2 3 5 351 358 2 354 330 314 319 332 342 345 357 25 26 360 343 345 332 319 312 305 301 301 290 310 275 263 280 286 270
93 83 82 82 82 84 97 164 68 30 4 12 9 12 1 12 20 14 355 330 334 341 336 342 339 29 23 8 358 353 346 319 316 306 295 293 294 281 283 271 275 272 285
105 97 78 69 52 22 323 39 40 4 358 15 16 18 23 29 19 8 358 341 336 328 322 323 322 358 10 357 341 326 324 321 305 277 285 285 284 289 280 284 282 264 263
118 97 76 59 51 30 353 9 8 337 350 17 357 8 353 21 17 5 351 322 313 317 325 319 327 348 354 354 331 335 326 315 294 280 269 278 285 294 265 258 268 272 266
104 88 62 24 2 4 3 13 8 338 314 312 315 326 335 32 18 1 356 326 325 318 308 337 350 10 8 349 329 325 324 320 322 324 309 287 285 278 268 263 260 264 274
117 99 65 9 3 359 357 4 351 307 288 296 321 325 305 10 79 9 345 322 326 329 330 344 36 22 360 351 333 318 310 315 322 318 310 285 267 265 257 227 229 242 267
101 98 74 32 340 353 29 338 327 331 310 278 290 307 284 92 88 40 352 326 328 325 324 333 4 354 338 326 315 301 294 301 308 303 289 274 264 245 231 226 222 225 236
94 92 89 21 318 18 21 321 311 298 291 281 273 289 302 108 73 35 310 280 302 316 321 338 355 347 327 312 304 290 294 303 295 298 306 302 293 289 270 237 226 221 225
86 75 58 348 341 305 261 270 274 280 293 301 297 283 282 270 132 288 270 286 307 314 324 336 323 308 310 304 297 301 303 300 298 305 311 310 304 303 304 291 256 239 256
78 313 261 236 237 256 268 265 266 304 320 328 322 319 314 337 27 15 324 297 297 304 313 311 306 300 299 308 321 323 296 303 312 308 307 304 293 279 285 298 297 271 287
225 243 248 240 233 228 241 282 272 13 48 293 325 336 345 357 342 320 302 308 320 325 313 293 295 306 321 315 304 296 286 294 302 302 301 303 299 282 279 311 315 304 282
244 252 256 252 243 241 215 202 137 176 167 190 217 256 355 353 288 312 314 304 304 316 319 300 299 305 308 309 316 314 309 309 307 303 307 313 314 310 294 272 265 270 265
258 262 266 270 266 263 268 251 225 199 206 225 229 233 235 253 268 285 304 312 302 295 273 283 292 298 304 310 313 316 315 314 302 296 298 298 297 296 285 268 259 254 260
256 256 269 267 275 278 278 273 268 258 240 236 225 229 237 246 259 275 305 326 308 274 270 287 299 303 308 313 319 321 314 308 305 299 296 291 288 288 282 270 264 258 266
265 273 281 285 283 281 282 284 290 294 291 291 211 206 237 249 255 264 265 287 299 310 311 302 305 322 330 334 337 333 325 323 324 316 311 309 307 300 298 295 285 271 272
238 246 254 270 279 286 295 297 297 305 318 326 333 2 284 260 259 251 228 256 288 301 302 307 317 322 325 333 331 322 321 325 328 328 327 321 321 324 322 316 300 285 275
269 248 237 259 271 278 288 292 300 300 299 305 330 24 301 299 311 308 283 288 297 301 309 332 341 336 338 338 328 324 327 330 332 335 336 332 331 330 322 308 301 296 292
272 276 266 264 269 281 290 295 297 298 304 313 328 291 233 286 327 337 347 337 316 313 331 336 335 342 341 339 336 334 336 340 341 340 339 331 324 320 320 318 312 304 296
264 269 269 265 259 254 259 277 296 304 307 316 321 337 341 330 327 334 346 348 343 336 344 354 345 337 335 341 349 352 355 347 335 329 324 319 319 315 310 310 310 307 300
264 271 275 274 251 262 280 294 301 307 315 320 314 325 339 316 314 332 337 340 341 339 341 342 339 330 332 342 355 5 19 355 336 325 322 313 309 308 304 301 303 304 299
273 276 270 276 280 278 287 301 314 323 322 324 337 347 350 334 325 335 339 338 342 337 339 338 335 339 339 358 15 19 9 1 351 333 318 308 303 301 297 295 293 295 296
305 303 294 290 307 325 324 312 311 321 320 321 331 334 326 321 330 334 326 333 326 328 334 329 323 339 352 16 27 26 18 358 341 326 310 296 289 293 300 295 297 292 290